[[{"header":{"parameterUnit":"m.s-1","parameterCategory":2,"la1":30.2991,"la2":30.254,"lo1":-89.0895,"lo2":-89.0444,"dy":0.0017,"dx":0.0017,"nx":28,"ny":28,"refTime":"2023-07-18T21:00:00:Z","depth":"0","parameterNumber":2,"parameterNumberName":"U-component_of_CURRENTS"},"data":[0,0,0,0,0,0,0,0,0,0,0,0,0,0,0,0,0,0,0,0,0,0,0,0,0,0,0,0,0,0,0,0,0,0,0,0,0,0,0,0,0,0,0,0,0,0,0,0,0,0,0,0,0,0,0,0,0,0,-0.233,-0.2331,0,-0.24,-0.2401,-0.2402,-0.2397,-0.2396,-0.2395,-0.2394,-0.2379,-0.2379,-0.238,0,0,0,0,0,0,0,0,0,0,0,0,0,-0.2166,-0.2169,-0.233,-0.2331,-0.2332,-0.24,-0.2401,-0.2402,-0.2397,-0.2396,-0.2395,-0.2394,-0.2379,-0.2379,-0.238,0,0,0,0,0,0,0,0,0,0,0,0,0,-0.2236,-0.217,-0.233,-0.2339,-0.234,-0.24,-0.2401,-0.2402,-0.2397,-0.2396,-0.2395,-0.2393,-0.2378,-0.2379,-0.238,-0.2411,0,0,-0.2382,-0.2382,0,0,0,0,0,0,0,0,-0.2232,-0.2242,-0.2336,-0.2338,-0.234,-0.239,-0.2338,-0.2401,-0.2398,-0.2374,-0.2394,-0.2393,-0.2376,-0.2377,-0.2393,-0.2411,-0.241,-0.2382,-0.2382,-0.2382,-0.2383,0,0,0,0,0,0,0,-0.2227,-0.2239,-0.2356,-0.2338,-0.234,-0.2331,-0.2339,-0.235,-0.2379,-0.2376,-0.2376,-0.2387,-0.2376,-0.2392,-0.2392,-0.241,-0.2382,-0.2382,-0.2383,-0.2383,-0.2448,-0.2449,0,0,0,0,0,0,-0.2225,-0.2235,-0.2354,-0.2359,-0.2283,-0.2335,-0.2344,-0.2374,-0.2381,-0.2382,-0.2388,-0.2386,-0.2392,-0.2391,-0.2391,-0.2418,-0.2382,-0.2383,-0.2383,-0.2447,-0.2448,-0.245,0,0,0,0,0,0,-0.2222,-0.2236,-0.2351,-0.2298,-0.2312,-0.234,-0.2373,-0.2376,-0.2379,-0.2391,-0.239,-0.2386,-0.2391,-0.239,-0.2407,-0.2417,-0.2383,-0.2384,-0.2445,-0.2447,-0.2449,-0.2478,0,0,0,0,0,0,-0.2217,-0.2235,-0.2241,-0.2299,-0.2315,-0.2378,-0.2374,-0.2379,-0.239,-0.2388,-0.239,-0.2388,-0.2389,-0.2406,-0.2408,-0.2418,-0.2384,-0.2443,-0.2446,-0.2448,-0.2475,-0.2481,-0.2485,0,0,0,0,0,-0.2211,-0.2216,-0.2242,-0.2255,-0.2329,-0.2378,-0.2385,-0.2398,-0.2391,-0.2395,-0.2407,-0.2387,-0.2422,-0.2408,-0.2409,-0.242,-0.2442,-0.2445,-0.2448,-0.2473,-0.248,-0.2485,0,0,0,0,0,0,-0.2117,-0.2219,-0.2247,-0.2275,-0.2324,-0.2377,-0.2373,-0.2395,-0.241,-0.24,-0.2407,-0.2407,-0.243,-0.2424,-0.2408,-0.2448,-0.2428,-0.2431,-0.2447,-0.2453,-0.2458,-0.246,-0.2385,0,0,0,0,0,-0.2112,-0.2153,-0.224,-0.2252,-0.2281,-0.233,-0.2346,-0.2368,-0.2396,-0.2401,-0.2413,-0.2425,-0.2448,-0.2447,-0.2467,-0.2484,-0.2474,-0.2492,-0.2497,-0.2501,-0.2506,-0.252,-0.2526,-0.2459,-0.2459,-0.2459,0,0,-0.2066,-0.2133,-0.2146,-0.2237,-0.227,-0.2312,-0.2334,-0.2361,-0.2387,-0.2397,-0.2418,-0.2445,-0.246,-0.249,-0.2497,-0.2479,-0.2511,-0.2504,-0.2508,-0.2511,-0.2524,-0.253,-0.2535,-0.2461,-0.2461,-0.2461,0,0,-0.2005,-0.207,-0.2091,-0.2149,-0.2224,-0.2273,-0.2282,-0.2353,-0.2373,-0.2412,-0.2434,-0.248,-0.249,-0.253,-0.2543,-0.2588,-0.2546,-0.2575,-0.2591,-0.2604,-0.261,-0.2614,-0.2591,-0.2593,-0.2567,-0.2567,-0.2567,0,-0.1938,-0.1999,-0.2092,-0.2138,-0.2171,-0.2256,-0.2277,-0.2328,-0.2391,-0.2417,-0.2412,-0.2495,-0.2518,-0.2574,-0.2597,-0.2601,-0.2576,-0.2564,-0.261,-0.2614,-0.2618,-0.2594,-0.2596,-0.2569,-0.2568,-0.2568,-0.2568,0,-0.1917,-0.1962,-0.1973,-0.2077,-0.2128,-0.2155,-0.2258,-0.2305,-0.2344,-0.24,-0.2467,-0.2525,-0.2569,-0.2593,-0.2607,-0.2657,-0.2618,-0.2621,-0.259,-0.2626,-0.2598,-0.26,-0.2571,-0.257,-0.257,-0.257,0,0,-0.1758,-0.1926,-0.1925,-0.1964,-0.2101,-0.213,-0.2205,-0.2294,-0.2327,-0.2413,-0.2453,-0.2551,-0.2594,-0.2615,-0.2654,-0.2681,-0.2703,-0.2656,-0.2656,-0.2624,-0.2689,-0.2516,-0.2501,-0.2695,-0.2696,-0.2696,-0.2649,0,-0.1698,-0.1762,-0.1873,-0.1909,-0.1946,-0.2075,-0.213,-0.2228,-0.231,-0.2378,-0.2484,-0.2531,-0.2596,-0.2608,-0.2663,-0.2703,-0.2711,-0.2713,-0.2666,-0.2664,-0.25,-0.2499,-0.2345,-0.2276,-0.265,-0.2651,-0.2651,0,-0.1634,-0.1694,-0.1726,-0.1842,-0.1866,-0.1902,-0.201,-0.2076,-0.2227,-0.2287,-0.2397,-0.2476,-0.2584,-0.2601,-0.2698,-0.2684,-0.2685,-0.2707,-0.2705,-0.2536,-0.2495,-0.2306,-0.2265,-0.2092,-0.2653,-0.2653,-0.2653,0,-0.1469,-0.158,-0.1597,-0.1639,-0.1789,-0.1812,-0.1881,-0.2028,-0.2077,-0.2222,-0.2259,-0.2418,-0.2456,-0.2538,-0.2621,-0.2643,-0.2676,-0.2709,-0.2553,-0.254,-0.2397,-0.2368,-0.2177,-0.2734,-0.2734,-0.2734,-0.2734,0,-0.1367,-0.1372,-0.1515,-0.1522,-0.153,-0.1674,-0.1697,-0.1804,-0.1934,-0.1983,-0.218,-0.223,-0.2434,-0.2501,-0.2584,-0.2559,-0.2644,-0.2545,-0.2516,-0.2398,-0.2371,-0.2205,-0.2284,-0.2732,-0.2732,-0.2733,-0.2733,0,-0.1186,-0.1285,-0.1303,-0.1426,-0.1453,-0.1449,-0.1565,-0.1598,-0.1734,-0.1802,-0.1836,-0.2063,-0.2159,-0.2321,-0.2433,-0.245,-0.241,-0.2437,-0.2264,-0.2214,-0.1893,-0.1985,-0.1976,-0.1924,-0.2262,-0.2257,-0.2254,0,-0.1111,-0.1103,-0.1189,-0.1195,-0.1241,-0.1273,-0.1304,-0.1462,-0.1509,-0.1691,-0.1704,-0.1835,-0.1934,-0.2037,-0.211,-0.2174,-0.2218,-0.2002,-0.2028,-0.1822,-0.1908,-0.2039,-0.2009,-0.1857,-0.185,-0.1845,-0.184,0,-0.0967,-0.0987,-0.1008,-0.1014,-0.1031,-0.1059,-0.1116,-0.1127,-0.1313,-0.138,-0.1481,-0.157,-0.1691,-0.1724,-0.1778,-0.1806,-0.1905,-0.1882,-0.1736,-0.162,-0.1694,-0.1642,-0.1925,-0.1791,-0.1796,-0.1799,-0.1802,-0.1804,-0.0857,-0.0821,-0.0851,-0.0843,-0.0863,-0.0866,-0.0846,-0.0932,-0.0981,-0.1081,-0.1225,-0.1294,-0.1382,-0.1468,-0.1416,-0.1222,-0.1545,-0.1191,-0.1334,-0.149,-0.1395,-0.1528,-0.1315,-0.1317,-0.1319,-0.132,-0.1322,0,-0.0763,-0.073,-0.0698,-0.07,-0.0679,-0.073,-0.0745,-0.073,-0.0753,-0.0832,-0.091,-0.0969,-0.0911,-0.0914,-0.0787,-0.0674,-0.0758,-0.0677,-0.0823,-0.083,-0.0941,-0.086,-0.0453,-0.0453,-0.0453,-0.0454,-0.0454,-0.0454,-0.0722,-0.0654,-0.0624,-0.0549,-0.054,-0.0491,-0.0477,-0.0465,-0.0487,-0.0493,-0.0526,-0.0615,-0.0615,-0.0531,-0.0273,-0.0272,-0.0327,-0.0425,-0.0501,-0.0523,-0.058,-0.0636,-0.056,-0.0098,-0.0098,-0.0272,-0.0274,-0.0275]},{"header":{"parameterUnit":"m.s-1","parameterCategory":2,"la1":30.2991,"la2":30.254,"lo1":-89.0895,"lo2":-89.0444,"dy":0.0017,"dx":0.0017,"nx":28,"ny":28,"refTime":"2023-07-18T21:00:00:Z","depth":"0","parameterNumber":3,"parameterNumberName":"V-component_of_CURRENTS"},"data":[0,0,0,0,0,0,0,0,0,0,0,0,0,0,0,0,0,0,0,0,0,0,0,0,0,0,0,0,0,0,0,0,0,0,0,0,0,0,0,0,0,0,0,0,0,0,0,0,0,0,0,0,0,0,0,0,0,0,-0.1055,-0.1055,0,-0.1018,-0.1018,-0.1018,-0.0963,-0.0962,-0.0961,-0.096,-0.0858,-0.0857,-0.0855,0,0,0,0,0,0,0,0,0,0,0,0,0,-0.1059,-0.1059,-0.1055,-0.1055,-0.1054,-0.1018,-0.1018,-0.1017,-0.0963,-0.0962,-0.0961,-0.096,-0.0859,-0.0857,-0.0855,0,0,0,0,0,0,0,0,0,0,0,0,0,-0.1044,-0.1059,-0.1055,-0.1022,-0.1018,-0.1018,-0.1018,-0.1017,-0.0964,-0.0962,-0.096,-0.0959,-0.086,-0.0857,-0.0855,-0.0871,0,0,-0.0847,-0.0846,0,0,0,0,0,0,0,0,-0.1045,-0.1045,-0.1027,-0.1024,-0.102,-0.0992,-0.0982,-0.0965,-0.0964,-0.0986,-0.096,-0.0958,-0.0897,-0.0892,-0.0891,-0.0866,-0.0862,-0.0847,-0.0845,-0.0844,-0.0843,0,0,0,0,0,0,0,-0.1046,-0.1046,-0.1042,-0.1027,-0.1022,-0.1001,-0.0998,-0.0978,-0.0951,-0.0984,-0.098,-0.0974,-0.0895,-0.0894,-0.0888,-0.086,-0.0847,-0.0844,-0.0843,-0.0842,-0.0787,-0.0787,0,0,0,0,0,0,-0.1051,-0.1047,-0.1043,-0.1041,-0.1027,-0.1003,-0.0999,-0.1004,-0.0953,-0.0943,-0.0975,-0.0971,-0.0899,-0.0891,-0.0884,-0.0877,-0.0844,-0.0841,-0.084,-0.0787,-0.0787,-0.0787,0,0,0,0,0,0,-0.1052,-0.1052,-0.1045,-0.1041,-0.1038,-0.1004,-0.1011,-0.1004,-0.0992,-0.0946,-0.0936,-0.0968,-0.0898,-0.0888,-0.0871,-0.0874,-0.084,-0.0838,-0.0787,-0.0787,-0.0787,-0.0878,0,0,0,0,0,0,-0.1052,-0.1053,-0.1059,-0.1042,-0.1039,-0.1041,-0.1012,-0.1005,-0.0991,-0.0986,-0.0937,-0.0927,-0.0896,-0.0875,-0.0868,-0.0869,-0.0836,-0.0786,-0.0787,-0.0787,-0.0875,-0.0881,-0.0887,0,0,0,0,0,-0.1053,-0.1061,-0.106,-0.1059,-0.1049,-0.1042,-0.1039,-0.1009,-0.0993,-0.0992,-0.0966,-0.0928,-0.0869,-0.0874,-0.0866,-0.0866,-0.0786,-0.0787,-0.0787,-0.0872,-0.088,-0.0887,0,0,0,0,0,0,-0.1059,-0.1056,-0.1054,-0.106,-0.1052,-0.1032,-0.1024,-0.1013,-0.0994,-0.0984,-0.0943,-0.0932,-0.0912,-0.0879,-0.0884,-0.0847,-0.0816,-0.0815,-0.0884,-0.0891,-0.0896,-0.0916,-0.0834,0,0,0,0,0,-0.1068,-0.1077,-0.1068,-0.1073,-0.1068,-0.1051,-0.1044,-0.1029,-0.101,-0.1,-0.0971,-0.0935,-0.091,-0.0893,-0.0863,-0.0856,-0.0835,-0.0844,-0.085,-0.0855,-0.0864,-0.0857,-0.0864,-0.0787,-0.0787,-0.0787,0,0,-0.107,-0.1071,-0.1074,-0.1076,-0.1064,-0.1064,-0.1042,-0.1032,-0.1038,-0.0992,-0.0987,-0.0957,-0.0912,-0.09,-0.0887,-0.0872,-0.0864,-0.0855,-0.0861,-0.0866,-0.0858,-0.0866,-0.0873,-0.0787,-0.0787,-0.0787,0,0,-0.1068,-0.108,-0.1079,-0.1079,-0.107,-0.1071,-0.107,-0.1056,-0.1052,-0.1054,-0.1017,-0.1005,-0.0959,-0.0943,-0.0925,-0.0947,-0.0896,-0.0914,-0.0963,-0.0958,-0.0965,-0.097,-0.0952,-0.0955,-0.0918,-0.0918,-0.0918,0,-0.1066,-0.1072,-0.1077,-0.1075,-0.1075,-0.1075,-0.1074,-0.1083,-0.1069,-0.1078,-0.1055,-0.102,-0.0987,-0.0985,-0.0987,-0.0964,-0.094,-0.0946,-0.0969,-0.0974,-0.0978,-0.0958,-0.096,-0.0922,-0.0922,-0.0922,-0.0921,0,-0.1066,-0.1067,-0.1065,-0.1073,-0.1081,-0.1081,-0.1094,-0.1111,-0.1113,-0.1118,-0.112,-0.1093,-0.107,-0.1055,-0.1028,-0.1037,-0.1002,-0.0981,-0.096,-0.0992,-0.0967,-0.0969,-0.0929,-0.0927,-0.0926,-0.0925,0,0,-0.1063,-0.1063,-0.1063,-0.1066,-0.1081,-0.1089,-0.1119,-0.1147,-0.1171,-0.1173,-0.1195,-0.1173,-0.1162,-0.114,-0.1108,-0.1106,-0.1121,-0.1057,-0.1055,-0.1054,-0.1092,-0.103,-0.1024,-0.1098,-0.1099,-0.11,-0.1062,0,-0.1055,-0.1053,-0.1063,-0.1074,-0.1073,-0.1101,-0.1132,-0.1165,-0.1189,-0.1218,-0.1221,-0.1217,-0.1192,-0.1177,-0.1181,-0.1141,-0.1127,-0.1132,-0.1046,-0.1044,-0.0998,-0.1025,-0.0956,-0.0913,-0.1063,-0.1063,-0.1063,0,-0.1053,-0.1052,-0.1054,-0.1076,-0.108,-0.1099,-0.116,-0.1186,-0.124,-0.1254,-0.1276,-0.1268,-0.1286,-0.1243,-0.1223,-0.1223,-0.116,-0.1126,-0.1123,-0.1035,-0.0984,-0.0902,-0.0909,-0.0602,-0.1065,-0.1065,-0.1065,0,-0.1054,-0.1054,-0.1059,-0.1064,-0.109,-0.1111,-0.1139,-0.1196,-0.1228,-0.1276,-0.1293,-0.1317,-0.1313,-0.1283,-0.1234,-0.1219,-0.1196,-0.1165,-0.1047,-0.1042,-0.0951,-0.0936,-0.0666,-0.1124,-0.1124,-0.1124,-0.1124,0,-0.1051,-0.1051,-0.1058,-0.1062,-0.1086,-0.1107,-0.1152,-0.1188,-0.1238,-0.1282,-0.1304,-0.1331,-0.1317,-0.1309,-0.1256,-0.1173,-0.1215,-0.1062,-0.1033,-0.0978,-0.0967,-0.0669,-0.0557,-0.1123,-0.1123,-0.1123,-0.1124,0,-0.1037,-0.1044,-0.1047,-0.1069,-0.1082,-0.11,-0.1153,-0.1192,-0.1231,-0.1288,-0.1301,-0.134,-0.1348,-0.1326,-0.1273,-0.1182,-0.097,-0.1059,-0.0993,-0.0956,-0.0554,-0.0453,-0.0305,-0.018,-0.0929,-0.0927,-0.0926,0,-0.1016,-0.1018,-0.1048,-0.1058,-0.1063,-0.1096,-0.1131,-0.1184,-0.1231,-0.1298,-0.1329,-0.1346,-0.139,-0.1307,-0.1199,-0.1108,-0.0897,-0.0878,-0.0836,-0.0517,-0.0384,-0.0384,-0.0289,-0.075,-0.0747,-0.0745,-0.0743,0,-0.0967,-0.0989,-0.0994,-0.1028,-0.1058,-0.1101,-0.1152,-0.119,-0.1266,-0.1323,-0.1388,-0.1425,-0.1373,-0.1324,-0.1172,-0.1015,-0.0667,-0.0824,-0.0514,-0.0237,-0.0203,-0.0073,-0.0775,-0.0723,-0.0725,-0.0727,-0.0728,-0.0728,-0.0915,-0.0918,-0.0944,-0.0978,-0.1021,-0.1086,-0.112,-0.1208,-0.1287,-0.1384,-0.1419,-0.1511,-0.1422,-0.1254,-0.098,-0.0402,-0.0537,-0.02,-0.0112,-0.0146,0.0007,-0.0644,-0.0545,-0.0546,-0.0547,-0.0548,-0.0548,0,-0.0833,-0.0862,-0.0891,-0.0937,-0.0983,-0.1028,-0.1118,-0.117,-0.1271,-0.1419,-0.1494,-0.1563,-0.127,-0.0938,-0.0304,0.021,0.0333,0.0505,0.0573,0.063,0.0066,0.0117,0.0388,0.0388,0.0388,0.0387,0.0387,0.0387,-0.0785,-0.0796,-0.0833,-0.088,-0.0922,-0.098,-0.1026,-0.1136,-0.1259,-0.1437,-0.1582,-0.169,-0.1253,-0.0198,0.0761,0.0975,0.1298,0.1263,0.1402,0.1116,0.1059,0.1004,0.1087,0.1557,0.1558,0.1936,0.1941,0.1944]}],[{"header":{"parameterUnit":"m.s-1","parameterCategory":2,"la1":30.2991,"la2":30.254,"lo1":-89.0895,"lo2":-89.0444,"dy":0.0017,"dx":0.0017,"nx":28,"ny":28,"refTime":"2023-07-18T21:00:00:Z","depth":"2","parameterNumber":2,"parameterNumberName":"U-component_of_CURRENTS"},"data":[0,0,0,0,0,0,0,0,0,0,0,0,0,0,0,0,0,0,0,0,0,0,0,0,0,0,0,0,0,0,0,0,0,0,0,0,0,0,0,0,0,0,0,0,0,0,0,0,0,0,0,0,0,0,0,0,0,0,-0.2163,-0.2162,0,-0.2137,-0.2137,-0.2137,-0.2178,-0.2179,-0.218,-0.2181,-0.2263,-0.2264,-0.2265,0,0,0,0,0,0,0,0,0,0,0,0,0,-0.2108,-0.2109,-0.2163,-0.2162,-0.2162,-0.2137,-0.2137,-0.2137,-0.2178,-0.2179,-0.2181,-0.2182,-0.2263,-0.2264,-0.2265,0,0,0,0,0,0,0,0,0,0,0,0,0,-0.2114,-0.211,-0.2163,-0.2177,-0.2178,-0.2137,-0.2137,-0.2137,-0.2177,-0.2179,-0.2181,-0.2183,-0.2262,-0.2264,-0.2265,-0.224,0,0,-0.227,-0.2271,0,0,0,0,0,0,0,0,-0.2114,-0.2117,-0.2176,-0.2176,-0.2177,-0.216,-0.2147,-0.2176,-0.2177,-0.218,-0.2182,-0.2184,-0.2236,-0.224,-0.2233,-0.2244,-0.2247,-0.2271,-0.2272,-0.2272,-0.2273,0,0,0,0,0,0,0,-0.2114,-0.2117,-0.2155,-0.2175,-0.2176,-0.2137,-0.2141,-0.2152,-0.2203,-0.218,-0.2183,-0.2175,-0.2237,-0.2231,-0.2235,-0.2248,-0.2271,-0.2272,-0.2273,-0.2274,-0.2278,-0.2278,0,0,0,0,0,0,-0.2118,-0.2118,-0.2156,-0.2154,-0.2146,-0.2137,-0.2142,-0.2166,-0.22,-0.2205,-0.2173,-0.2177,-0.2228,-0.2233,-0.2239,-0.2272,-0.2272,-0.2274,-0.2275,-0.2279,-0.2278,-0.2277,0,0,0,0,0,0,-0.2117,-0.2123,-0.2157,-0.2131,-0.2133,-0.2137,-0.2163,-0.2164,-0.2181,-0.2193,-0.2202,-0.219,-0.2229,-0.2236,-0.2252,-0.2274,-0.2274,-0.2276,-0.228,-0.2279,-0.2278,-0.2301,0,0,0,0,0,0,-0.2116,-0.2123,-0.2115,-0.2133,-0.2134,-0.2147,-0.2161,-0.2163,-0.2171,-0.2176,-0.221,-0.2218,-0.2231,-0.2249,-0.2253,-0.2276,-0.2277,-0.2281,-0.228,-0.2278,-0.2301,-0.2301,-0.23,0,0,0,0,0,-0.2115,-0.2118,-0.2116,-0.2118,-0.2133,-0.2146,-0.2144,-0.2152,-0.217,-0.2175,-0.219,-0.2218,-0.2242,-0.2249,-0.2254,-0.2279,-0.2282,-0.228,-0.2278,-0.2302,-0.2301,-0.23,0,0,0,0,0,0,-0.211,-0.2122,-0.2121,-0.2133,-0.2138,-0.2153,-0.2149,-0.2159,-0.2172,-0.2184,-0.2206,-0.2214,-0.2231,-0.224,-0.2247,-0.227,-0.2267,-0.2266,-0.2283,-0.2283,-0.2282,-0.2289,-0.2278,0,0,0,0,0,-0.2097,-0.2101,-0.2111,-0.2123,-0.2127,-0.2138,-0.2136,-0.2151,-0.2169,-0.2178,-0.2205,-0.222,-0.222,-0.2242,-0.2242,-0.2261,-0.2235,-0.2276,-0.2276,-0.2276,-0.2281,-0.2274,-0.2275,-0.2271,-0.2271,-0.2271,0,0,-0.2092,-0.2105,-0.2102,-0.2118,-0.2128,-0.213,-0.2145,-0.2163,-0.2175,-0.2184,-0.2218,-0.2217,-0.2217,-0.2231,-0.2242,-0.2253,-0.2247,-0.2273,-0.2273,-0.2279,-0.2273,-0.2273,-0.2274,-0.227,-0.227,-0.227,0,0,-0.2098,-0.2111,-0.2107,-0.2118,-0.2129,-0.2131,-0.2141,-0.2167,-0.2191,-0.221,-0.2209,-0.2221,-0.2245,-0.2245,-0.2247,-0.2241,-0.2233,-0.2245,-0.2272,-0.2265,-0.2266,-0.2267,-0.2172,-0.2164,-0.2261,-0.2261,-0.2261,0,-0.2091,-0.2112,-0.2108,-0.212,-0.2131,-0.2138,-0.2151,-0.2161,-0.219,-0.2206,-0.2231,-0.2247,-0.2252,-0.2256,-0.225,-0.2246,-0.2209,-0.2281,-0.2267,-0.2268,-0.2268,-0.2171,-0.2163,-0.2262,-0.2262,-0.2262,-0.2262,0,-0.2088,-0.2114,-0.213,-0.2141,-0.2134,-0.2168,-0.2172,-0.2194,-0.2225,-0.223,-0.2261,-0.227,-0.2285,-0.2284,-0.227,-0.2272,-0.2227,-0.2257,-0.2276,-0.2271,-0.2167,-0.2157,-0.2263,-0.2263,-0.2263,-0.2263,0,0,-0.2098,-0.212,-0.214,-0.2157,-0.2166,-0.2178,-0.219,-0.2206,-0.223,-0.2262,-0.2282,-0.2297,-0.2307,-0.2306,-0.2301,-0.2302,-0.2247,-0.2286,-0.2285,-0.2202,-0.2165,-0.2042,-0.2019,-0.2287,-0.2287,-0.2287,-0.2069,0,-0.2121,-0.2137,-0.2154,-0.2193,-0.2192,-0.2223,-0.2243,-0.2247,-0.2257,-0.2269,-0.2283,-0.2279,-0.2313,-0.2313,-0.2329,-0.2244,-0.2234,-0.2299,-0.2174,-0.2168,-0.2072,-0.201,-0.1905,-0.1697,-0.2059,-0.2058,-0.2057,0,-0.2122,-0.2134,-0.2159,-0.2225,-0.2241,-0.2287,-0.2322,-0.2322,-0.231,-0.2309,-0.2313,-0.2299,-0.2263,-0.2311,-0.2232,-0.227,-0.2229,-0.2186,-0.2178,-0.2058,-0.2031,-0.1772,-0.1666,-0.2041,-0.2042,-0.2043,-0.2044,0,-0.2101,-0.2164,-0.2189,-0.2208,-0.2254,-0.233,-0.236,-0.2357,-0.2329,-0.2297,-0.2249,-0.226,-0.2199,-0.2201,-0.2115,-0.2167,-0.2004,-0.2065,-0.1918,-0.1905,-0.1787,-0.1765,-0.2044,-0.2044,-0.2045,-0.2045,-0.2046,0,-0.2119,-0.2175,-0.2213,-0.2248,-0.2311,-0.2335,-0.2385,-0.2405,-0.2362,-0.2276,-0.2266,-0.2189,-0.2175,-0.2084,-0.207,-0.1918,-0.197,-0.1888,-0.185,-0.1781,-0.1762,-0.2064,-0.2069,-0.2037,-0.2039,-0.204,-0.2042,0,-0.2131,-0.2148,-0.2196,-0.2279,-0.2305,-0.2348,-0.238,-0.2368,-0.2333,-0.2206,-0.2168,-0.2068,-0.192,-0.1888,-0.1798,-0.1791,-0.1705,-0.166,-0.1525,-0.1477,-0.1615,-0.1624,-0.1453,-0.1447,-0.1442,-0.1437,-0.1434,0,-0.2145,-0.2154,-0.2204,-0.2216,-0.23,-0.2337,-0.2335,-0.2333,-0.2267,-0.2117,-0.2031,-0.187,-0.1728,-0.152,-0.1469,-0.1368,-0.15,-0.1218,-0.1333,-0.1578,-0.1559,-0.1576,-0.1591,-0.1147,-0.1141,-0.1137,-0.1133,0,-0.2175,-0.22,-0.2224,-0.2211,-0.2249,-0.2222,-0.2236,-0.217,-0.2088,-0.1971,-0.1786,-0.1671,-0.1457,-0.1275,-0.114,-0.1092,-0.1229,-0.1119,-0.1401,-0.1329,-0.1277,-0.1263,-0.1291,-0.1092,-0.1096,-0.1099,-0.1102,-0.1103,-0.2212,-0.2208,-0.2199,-0.2194,-0.2187,-0.2116,-0.2063,-0.201,-0.1862,-0.1661,-0.1606,-0.1377,-0.1274,-0.0999,-0.0902,-0.0815,-0.0926,-0.0908,-0.0928,-0.0952,-0.0972,-0.0917,-0.0661,-0.0662,-0.0663,-0.0665,-0.0666,0,-0.2182,-0.2176,-0.2166,-0.2126,-0.2056,-0.2086,-0.1965,-0.1843,-0.1645,-0.1503,-0.1344,-0.1054,-0.0888,-0.0789,-0.062,-0.0571,-0.0626,-0.0516,-0.0626,-0.0663,-0.0697,-0.0713,-0.0328,-0.0328,-0.0327,-0.0326,0,0,-0.2177,-0.2112,-0.2063,-0.1951,-0.1945,-0.1809,-0.1712,-0.1537,-0.14,-0.1138,-0.0982,-0.0956,-0.0841,-0.0653,-0.0556,-0.0439,-0.0569,-0.0392,-0.0659,-0.0833,-0.0868,-0.0901,-0.0961,0,0,0,0,0]},{"header":{"parameterUnit":"m.s-1","parameterCategory":2,"la1":30.2991,"la2":30.254,"lo1":-89.0895,"lo2":-89.0444,"dy":0.0017,"dx":0.0017,"nx":28,"ny":28,"refTime":"2023-07-18T21:00:00:Z","depth":"2","parameterNumber":3,"parameterNumberName":"V-component_of_CURRENTS"},"data":[0,0,0,0,0,0,0,0,0,0,0,0,0,0,0,0,0,0,0,0,0,0,0,0,0,0,0,0,0,0,0,0,0,0,0,0,0,0,0,0,0,0,0,0,0,0,0,0,0,0,0,0,0,0,0,0,0,0,-0.0244,-0.0243,0,-0.016,-0.0159,-0.0158,-0.0077,-0.0076,-0.0075,-0.0074,0.026,0.0268,0.0276,0,0,0,0,0,0,0,0,0,0,0,0,0,-0.0341,-0.0339,-0.0244,-0.0243,-0.0242,-0.0161,-0.0159,-0.0158,-0.0077,-0.0076,-0.0075,-0.0074,0.0258,0.0267,0.0277,0,0,0,0,0,0,0,0,0,0,0,0,0,-0.0281,-0.0339,-0.0244,-0.0193,-0.0187,-0.0161,-0.0159,-0.0158,-0.0077,-0.0076,-0.0074,-0.0073,0.0254,0.0266,0.0278,0.0324,0,0,0.0315,0.032,0,0,0,0,0,0,0,0,-0.0284,-0.0277,-0.0201,-0.0196,-0.019,-0.0129,-0.0071,0.0015,-0.0078,-0.0118,-0.0074,-0.0072,0.0152,0.0172,0.0183,0.0339,0.0354,0.0316,0.0323,0.0328,0.0332,0,0,0,0,0,0,0,-0.0289,-0.0281,-0.0209,-0.02,-0.0194,-0.0177,-0.0166,-0.0055,0.0014,-0.0114,-0.0108,-0.0102,0.0157,0.0171,0.0192,0.0359,0.0315,0.0326,0.0334,0.0338,0.0554,0.0553,0,0,0,0,0,0,-0.0303,-0.0284,-0.0212,-0.0207,-0.0236,-0.0176,-0.0165,-0.0149,0.0007,0.003,-0.0103,-0.0098,0.0149,0.0178,0.0204,0.0291,0.0328,0.0339,0.0346,0.0555,0.0554,0.0552,0,0,0,0,0,0,-0.0305,-0.0297,-0.0215,-0.0246,-0.0234,-0.0176,-0.0159,-0.0148,-0.0126,0.0013,0.0041,-0.0091,0.0152,0.0188,0.0272,0.0305,0.0345,0.0356,0.0557,0.0555,0.0553,0.0452,0,0,0,0,0,0,-0.0308,-0.0298,-0.0302,-0.0246,-0.0233,-0.0202,-0.016,-0.0147,-0.0125,-0.0117,0.0033,0.0064,0.0156,0.0253,0.0284,0.0322,0.0365,0.0559,0.0556,0.0554,0.0457,0.0447,0.0438,0,0,0,0,0,-0.0311,-0.0314,-0.0303,-0.0295,-0.0237,-0.0203,-0.0195,-0.0148,-0.0126,-0.0122,-0.0045,0.0059,0.0258,0.0261,0.0298,0.0341,0.056,0.0557,0.0554,0.0462,0.0449,0.0438,0,0,0,0,0,0,-0.0356,-0.0305,-0.0291,-0.0278,-0.0248,-0.0189,-0.0183,-0.0155,-0.0096,-0.0082,0.0044,0.0079,0.0165,0.0247,0.0247,0.0385,0.0427,0.0431,0.0344,0.0334,0.0324,0.0308,0.0375,0,0,0,0,0,-0.0373,-0.0357,-0.0313,-0.0303,-0.029,-0.0241,-0.0225,-0.0195,-0.0134,-0.0108,-0.0004,0.0095,0.0177,0.0247,0.0332,0.0418,0.0509,0.0464,0.0454,0.0445,0.0451,0.0603,0.0609,0.0541,0.0541,0.0541,0,0,-0.0387,-0.0358,-0.035,-0.0312,-0.0283,-0.0274,-0.0226,-0.0203,-0.0186,-0.0074,-0.0008,0.007,0.0183,0.0262,0.0312,0.0345,0.0501,0.0441,0.0433,0.0445,0.0601,0.0608,0.0615,0.0539,0.0539,0.054,0,0,-0.0412,-0.0383,-0.0385,-0.0362,-0.0328,-0.03,-0.0297,-0.0237,-0.02,-0.0144,-0.007,0.0012,0.0154,0.0236,0.0294,0.0283,0.0432,0.0315,0.0285,0.0431,0.0439,0.0448,0.0531,0.0548,0.0327,0.0326,0.0326,0,-0.0436,-0.0424,-0.0383,-0.0379,-0.0369,-0.0316,-0.0323,-0.0281,-0.0201,-0.017,-0.0133,0.0046,0.0144,0.0243,0.0225,0.0272,0.0354,0.0326,0.0423,0.0434,0.0444,0.0528,0.0548,0.0321,0.0322,0.0322,0.0323,0,-0.0459,-0.0454,-0.0449,-0.0429,-0.042,-0.0408,-0.036,-0.0325,-0.0275,-0.023,-0.0126,-0.0005,0.0123,0.0146,0.0187,0.03,0.0329,0.0384,0.046,0.0446,0.0533,0.0556,0.0314,0.0316,0.0317,0.0318,0,0,-0.0489,-0.0472,-0.0467,-0.0468,-0.0443,-0.0429,-0.0409,-0.0371,-0.0313,-0.0243,-0.0152,-0.0055,0.0036,0.0104,0.0194,0.0291,0.0413,0.0358,0.0368,0.0451,0.0702,0.0631,0.0649,0.05,0.0504,0.0507,0.0719,0,-0.0517,-0.0533,-0.0512,-0.0522,-0.0532,-0.0483,-0.0445,-0.0404,-0.0331,-0.0221,-0.0121,-0.0,0.002,0.0114,0.0213,0.0374,0.0475,0.0348,0.0695,0.0704,0.0654,0.0675,0.0562,0.0735,0.0742,0.0746,0.0749,0,-0.0546,-0.0552,-0.058,-0.0551,-0.0542,-0.0521,-0.0446,-0.0402,-0.0276,-0.0208,-0.0096,0.001,0.0151,0.0197,0.0462,0.0385,0.0535,0.0637,0.0651,0.0643,0.0677,0.0758,0.0777,0.0789,0.0785,0.0782,0.078,0,-0.0594,-0.0592,-0.0617,-0.0611,-0.0573,-0.0541,-0.0493,-0.0394,-0.0344,-0.0175,-0.0119,0.0076,0.0192,0.0404,0.0564,0.0564,0.084,0.0898,0.0962,0.0958,0.0958,0.0946,0.1109,0.1109,0.1108,0.1108,0.1107,0,-0.0632,-0.0638,-0.0622,-0.0626,-0.06,-0.0552,-0.0479,-0.04,-0.0275,-0.0216,-0.0085,0.0002,0.0251,0.0411,0.0598,0.0814,0.0892,0.0961,0.1023,0.0909,0.089,0.102,0.1007,0.1116,0.1114,0.1112,0.1111,0,-0.0671,-0.0672,-0.0685,-0.0644,-0.0626,-0.0592,-0.0504,-0.0439,-0.0328,-0.0235,-0.0191,-0.0032,0.0162,0.0361,0.0692,0.0833,0.1069,0.1125,0.092,0.0952,0.1089,0.1068,0.1288,0.1287,0.1287,0.1287,0.1286,0,-0.0691,-0.0711,-0.0703,-0.0701,-0.067,-0.062,-0.0576,-0.0471,-0.0417,-0.0274,-0.0235,-0.0066,0.0056,0.0439,0.0712,0.1025,0.1036,0.1091,0.1079,0.1077,0.1116,0.1095,0.1075,0.1037,0.1035,0.1033,0.1031,0,-0.0719,-0.0715,-0.0723,-0.0728,-0.07,-0.0683,-0.061,-0.0595,-0.0472,-0.0403,-0.029,-0.0183,0.0126,0.0395,0.0727,0.0891,0.1034,0.1063,0.119,0.0972,0.0849,0.0883,0.0871,0.1015,0.1017,0.1018,0.1019,0.1019,-0.0717,-0.0733,-0.0745,-0.0746,-0.073,-0.0719,-0.0698,-0.0641,-0.0581,-0.0422,-0.0327,-0.0097,0.0097,0.0591,0.0742,0.0913,0.0993,0.1047,0.1051,0.1058,0.0954,0.0834,0.0975,0.0976,0.0978,0.0979,0.098,0,-0.0718,-0.0733,-0.0755,-0.0766,-0.078,-0.0736,-0.0705,-0.0672,-0.0614,-0.0389,-0.0236,0.0011,0.0275,0.0489,0.0763,0.0915,0.0903,0.0879,0.0841,0.0855,0.0869,0.0754,0.0724,0.0724,0.0724,0.0724,0,0,-0.0708,-0.075,-0.0785,-0.082,-0.0806,-0.078,-0.076,-0.0696,-0.0536,-0.0342,-0.01,0.0191,0.0399,0.0531,0.0611,0.0701,0.0751,0.0677,0.0863,0.0818,0.083,0.0937,0.0772,0,0,0,0,0]}],[{"header":{"parameterUnit":"m.s-1","parameterCategory":2,"la1":30.2991,"la2":30.254,"lo1":-89.0895,"lo2":-89.0444,"dy":0.0017,"dx":0.0017,"nx":28,"ny":28,"refTime":"2023-07-18T21:00:00:Z","depth":"4","parameterNumber":2,"parameterNumberName":"U-component_of_CURRENTS"},"data":[0,0,0,0,0,0,0,0,0,0,0,0,0,0,0,0,0,0,0,0,0,0,0,0,0,0,0,0,0,0,0,0,0,0,0,0,0,0,0,0,0,0,0,0,0,0,0,0,0,0,0,0,0,0,0,0,0,0,-0.1203,-0.1203,0,-0.1236,-0.1236,-0.1237,-0.1277,-0.1277,-0.1278,-0.1278,-0.1334,-0.1335,-0.1336,0,0,0,0,0,0,0,0,0,0,0,0,0,-0.1176,-0.1177,-0.1203,-0.1204,-0.1204,-0.1236,-0.1236,-0.1237,-0.1277,-0.1277,-0.1278,-0.1279,-0.1334,-0.1335,-0.1336,0,0,0,0,0,0,0,0,0,0,0,0,0,-0.1197,-0.1177,-0.1203,-0.1227,-0.1229,-0.1236,-0.1236,-0.1237,-0.1276,-0.1277,-0.1278,-0.1279,-0.1334,-0.1335,-0.1336,-0.1328,0,0,-0.1341,-0.1341,0,0,0,0,0,0,0,0,-0.1196,-0.1198,-0.1223,-0.1225,-0.1228,-0.1252,-0.1247,-0.1269,-0.1276,-0.1259,-0.1278,-0.1279,-0.1308,-0.1312,-0.1316,-0.1331,-0.1333,-0.1341,-0.1342,-0.1342,-0.1343,0,0,0,0,0,0,0,-0.1194,-0.1197,-0.1217,-0.1223,-0.1226,-0.1237,-0.124,-0.1252,-0.1279,-0.1261,-0.1264,-0.1266,-0.131,-0.1315,-0.1318,-0.1334,-0.1341,-0.1342,-0.1343,-0.1344,-0.1426,-0.1427,0,0,0,0,0,0,-0.1188,-0.1195,-0.1216,-0.1218,-0.1213,-0.1236,-0.1241,-0.1244,-0.1279,-0.1285,-0.1265,-0.1268,-0.1312,-0.1316,-0.132,-0.1391,-0.1342,-0.1344,-0.1345,-0.1424,-0.1426,-0.1427,0,0,0,0,0,0,-0.1187,-0.1189,-0.1214,-0.1207,-0.1211,-0.1236,-0.124,-0.1245,-0.1271,-0.1282,-0.1288,-0.1289,-0.1313,-0.1318,-0.1356,-0.139,-0.1344,-0.1346,-0.1423,-0.1425,-0.1427,-0.1481,0,0,0,0,0,0,-0.1186,-0.1189,-0.12,-0.1206,-0.1211,-0.1239,-0.1239,-0.1245,-0.1269,-0.1274,-0.1304,-0.1309,-0.1314,-0.1354,-0.1357,-0.1391,-0.1347,-0.1421,-0.1424,-0.1426,-0.1478,-0.1485,-0.1491,0,0,0,0,0,-0.1185,-0.1196,-0.1201,-0.1204,-0.1222,-0.1239,-0.1244,-0.1264,-0.127,-0.1289,-0.1311,-0.1309,-0.1372,-0.1356,-0.136,-0.1395,-0.142,-0.1423,-0.1426,-0.1475,-0.1483,-0.1491,0,0,0,0,0,0,-0.1191,-0.1201,-0.1206,-0.122,-0.1237,-0.1246,-0.1263,-0.1273,-0.1304,-0.1314,-0.1322,-0.1329,-0.1375,-0.1375,-0.1357,-0.1426,-0.1397,-0.1401,-0.1433,-0.1441,-0.1447,-0.1434,-0.1348,0,0,0,0,0,-0.1195,-0.1209,-0.1218,-0.1233,-0.1239,-0.1253,-0.1266,-0.1282,-0.1302,-0.1317,-0.1338,-0.1361,-0.1385,-0.1406,-0.1423,-0.1459,-0.1439,-0.1485,-0.1491,-0.1497,-0.1489,-0.149,-0.1495,-0.1437,-0.1437,-0.1437,0,0,-0.1201,-0.1209,-0.1218,-0.1236,-0.1247,-0.1266,-0.1264,-0.1291,-0.1319,-0.1317,-0.1367,-0.1383,-0.1399,-0.1443,-0.1464,-0.1452,-0.1505,-0.15,-0.1505,-0.1494,-0.1493,-0.1499,-0.1504,-0.1439,-0.1439,-0.1438,0,0,-0.121,-0.1226,-0.1236,-0.1254,-0.1277,-0.1289,-0.1301,-0.1324,-0.135,-0.1391,-0.1401,-0.1437,-0.1473,-0.1495,-0.1508,-0.1558,-0.1536,-0.1571,-0.16,-0.1601,-0.1606,-0.1609,-0.1596,-0.1598,-0.1579,-0.1579,-0.1579,0,-0.1217,-0.1229,-0.1244,-0.1259,-0.1275,-0.1301,-0.1318,-0.135,-0.1389,-0.141,-0.1417,-0.1477,-0.1496,-0.1543,-0.1567,-0.1574,-0.1562,-0.157,-0.1609,-0.1612,-0.1614,-0.16,-0.1601,-0.1582,-0.1582,-0.1582,-0.1581,0,-0.1224,-0.1246,-0.1254,-0.1282,-0.1307,-0.133,-0.1366,-0.1405,-0.1435,-0.146,-0.1517,-0.1543,-0.1574,-0.1597,-0.1599,-0.1639,-0.162,-0.1613,-0.1586,-0.1623,-0.1606,-0.1607,-0.1586,-0.1585,-0.1584,-0.1584,0,0,-0.12,-0.1248,-0.1254,-0.127,-0.1321,-0.1338,-0.1395,-0.1441,-0.147,-0.1527,-0.156,-0.162,-0.163,-0.1644,-0.166,-0.1672,-0.1689,-0.1655,-0.1654,-0.1636,-0.1682,-0.1546,-0.1533,-0.169,-0.169,-0.169,-0.1663,0,-0.1198,-0.1227,-0.1257,-0.1298,-0.1312,-0.1363,-0.1408,-0.1463,-0.1506,-0.155,-0.1597,-0.1631,-0.1651,-0.1664,-0.1687,-0.1687,-0.1692,-0.1696,-0.1652,-0.165,-0.1521,-0.153,-0.1691,-0.1663,-0.1663,-0.1663,-0.1663,0,-0.1184,-0.1208,-0.1241,-0.1297,-0.1308,-0.1344,-0.1409,-0.145,-0.1524,-0.1558,-0.1611,-0.1637,-0.1687,-0.1681,-0.1709,-0.1711,-0.1697,-0.1693,-0.1691,-0.1541,-0.1515,-0.1617,-0.1663,-0.1663,-0.1663,-0.1663,-0.1663,0,-0.1141,-0.1195,-0.1223,-0.1243,-0.1311,-0.1342,-0.138,-0.1452,-0.1482,-0.1554,-0.157,-0.1643,-0.1652,-0.1678,-0.1687,-0.1696,-0.1689,-0.1697,-0.1562,-0.1553,-0.166,-0.1656,-0.1692,-0.1692,-0.1692,-0.1692,-0.1692,0,-0.1112,-0.1136,-0.1208,-0.122,-0.1255,-0.1311,-0.1351,-0.1402,-0.1462,-0.148,-0.156,-0.1562,-0.1646,-0.1659,-0.1679,-0.1613,-0.1683,-0.1552,-0.1531,-0.1685,-0.1684,-0.166,-0.1657,-0.1691,-0.1691,-0.1691,-0.1692,0,-0.1056,-0.1105,-0.1139,-0.1211,-0.1234,-0.1256,-0.1323,-0.1342,-0.1404,-0.1423,-0.1441,-0.1501,-0.1496,-0.156,-0.158,-0.1559,-0.1541,-0.1496,-0.1646,-0.1637,-0.1408,-0.1408,-0.1339,-0.1334,-0.133,-0.1326,-0.1323,0,-0.1028,-0.1042,-0.1118,-0.1135,-0.1168,-0.121,-0.1233,-0.1308,-0.132,-0.1363,-0.1353,-0.1364,-0.1395,-0.131,-0.1399,-0.1413,-0.1401,-0.1391,-0.1408,-0.1382,-0.137,-0.1377,-0.1383,-0.1316,-0.1315,-0.1314,-0.1313,0,-0.0972,-0.1011,-0.1037,-0.1069,-0.1098,-0.1121,-0.1154,-0.115,-0.1212,-0.1279,-0.1209,-0.1198,-0.1171,-0.1197,-0.1205,-0.1227,-0.1409,-0.1346,-0.1355,-0.1371,-0.1354,-0.1347,-0.1358,-0.1298,-0.13,-0.1301,-0.1302,0,-0.0933,-0.0937,-0.0974,-0.0992,-0.102,-0.1007,-0.1043,-0.1029,-0.1042,-0.1091,-0.1059,-0.1077,-0.1126,-0.1096,-0.1118,-0.1115,-0.1106,-0.1095,-0.1118,-0.1136,-0.1088,-0.1037,-0.085,0,0,0,0,0,-0.0886,-0.0877,-0.089,-0.0895,-0.0915,-0.0927,-0.0975,-0.1012,-0.1068,-0.0974,-0.101,-0.0978,-0.0952,-0.0975,-0.0932,-0.1062,-0.1142,-0.1012,-0.1149,-0.1214,-0.1232,-0.1198,0,0,0,0,0,0,-0.0852,-0.0863,-0.0861,-0.0805,-0.0783,-0.079,-0.0813,-0.0858,-0.0812,-0.0871,-0.0855,-0.0905,-0.0902,-0.0943,-0.09,-0.0915,-0.098,-0.1042,-0.1039,-0.1205,-0.122,-0.1234,-0.1206,0,0,0,0,0]},{"header":{"parameterUnit":"m.s-1","parameterCategory":2,"la1":30.2991,"la2":30.254,"lo1":-89.0895,"lo2":-89.0444,"dy":0.0017,"dx":0.0017,"nx":28,"ny":28,"refTime":"2023-07-18T21:00:00:Z","depth":"4","parameterNumber":3,"parameterNumberName":"V-component_of_CURRENTS"},"data":[0,0,0,0,0,0,0,0,0,0,0,0,0,0,0,0,0,0,0,0,0,0,0,0,0,0,0,0,0,0,0,0,0,0,0,0,0,0,0,0,0,0,0,0,0,0,0,0,0,0,0,0,0,0,0,0,0,0,-0.0287,-0.0287,0,-0.0258,-0.0258,-0.0257,-0.0234,-0.0234,-0.0234,-0.0233,-0.0174,-0.0172,-0.0171,0,0,0,0,0,0,0,0,0,0,0,0,0,-0.0298,-0.0298,-0.0288,-0.0287,-0.0287,-0.0258,-0.0258,-0.0257,-0.0234,-0.0234,-0.0234,-0.0233,-0.0174,-0.0172,-0.0171,0,0,0,0,0,0,0,0,0,0,0,0,0,-0.0283,-0.0298,-0.0288,-0.0273,-0.0271,-0.0258,-0.0258,-0.0257,-0.0234,-0.0234,-0.0233,-0.0233,-0.0175,-0.0172,-0.017,-0.016,0,0,-0.0164,-0.0163,0,0,0,0,0,0,0,0,-0.0284,-0.0282,-0.0275,-0.0274,-0.0272,-0.025,-0.0239,-0.0224,-0.0234,-0.0247,-0.0233,-0.0233,-0.0197,-0.0193,-0.0187,-0.0158,-0.0155,-0.0163,-0.0162,-0.0161,-0.016,0,0,0,0,0,0,0,-0.0285,-0.0283,-0.0275,-0.0275,-0.0273,-0.0259,-0.0257,-0.0236,-0.0222,-0.0246,-0.0244,-0.0243,-0.0196,-0.0189,-0.0185,-0.0154,-0.0163,-0.0161,-0.016,-0.0159,-0.0102,-0.0101,0,0,0,0,0,0,-0.0292,-0.0284,-0.0276,-0.0274,-0.0279,-0.0259,-0.0256,-0.0257,-0.0223,-0.0218,-0.0243,-0.0242,-0.0193,-0.0188,-0.0183,-0.016,-0.0161,-0.0159,-0.0158,-0.0102,-0.0102,-0.0101,0,0,0,0,0,0,-0.0293,-0.0292,-0.0277,-0.0279,-0.0276,-0.0259,-0.026,-0.0256,-0.0255,-0.0221,-0.0216,-0.0246,-0.0193,-0.0186,-0.0163,-0.0158,-0.0158,-0.0156,-0.0102,-0.0102,-0.0101,-0.012,0,0,0,0,0,0,-0.0293,-0.0292,-0.0299,-0.028,-0.0277,-0.0278,-0.026,-0.0256,-0.0254,-0.0252,-0.0222,-0.0216,-0.0192,-0.0166,-0.016,-0.0155,-0.0154,-0.0102,-0.0102,-0.0101,-0.0119,-0.012,-0.0121,0,0,0,0,0,-0.0293,-0.0303,-0.03,-0.0299,-0.0286,-0.0279,-0.0276,-0.0262,-0.0255,-0.0259,-0.023,-0.0217,-0.016,-0.0164,-0.0158,-0.0151,-0.0102,-0.0102,-0.0102,-0.0119,-0.012,-0.0121,0,0,0,0,0,0,-0.0313,-0.0301,-0.0297,-0.0304,-0.0297,-0.0275,-0.0278,-0.0269,-0.025,-0.0247,-0.0214,-0.0206,-0.0183,-0.0166,-0.0172,-0.0133,-0.0129,-0.0128,-0.0145,-0.0145,-0.0146,-0.0167,-0.0152,0,0,0,0,0,-0.0321,-0.0325,-0.0312,-0.0319,-0.0316,-0.0299,-0.0296,-0.0287,-0.0267,-0.0259,-0.0237,-0.0208,-0.0176,-0.0161,-0.0137,-0.0117,-0.0092,-0.0109,-0.0109,-0.011,-0.0123,-0.0062,-0.0058,-0.01,-0.01,-0.01,0,0,-0.0331,-0.0325,-0.0328,-0.0323,-0.0315,-0.032,-0.0297,-0.0296,-0.0297,-0.0255,-0.0248,-0.0212,-0.0172,-0.0146,-0.0134,-0.0131,-0.0086,-0.011,-0.011,-0.0123,-0.0061,-0.0057,-0.0053,-0.0099,-0.01,-0.01,0,0,-0.0352,-0.0348,-0.0359,-0.0358,-0.0352,-0.0339,-0.0343,-0.0327,-0.0316,-0.0304,-0.0265,-0.0225,-0.0197,-0.0153,-0.0129,-0.012,-0.0093,-0.0117,-0.0134,-0.0074,-0.007,-0.0067,-0.0034,-0.0027,-0.0115,-0.0115,-0.0115,0,-0.0367,-0.038,-0.0362,-0.0375,-0.0381,-0.0352,-0.037,-0.0352,-0.033,-0.0319,-0.0309,-0.0237,-0.0197,-0.0146,-0.0139,-0.012,-0.0096,-0.0133,-0.0075,-0.0071,-0.0066,-0.0034,-0.0026,-0.0116,-0.0116,-0.0116,-0.0116,0,-0.0396,-0.0412,-0.0419,-0.0426,-0.0427,-0.0437,-0.0415,-0.0408,-0.0391,-0.0368,-0.0326,-0.0262,-0.0221,-0.0192,-0.0162,-0.0111,-0.0107,-0.0083,-0.0074,-0.0063,-0.0029,-0.0021,-0.0117,-0.0117,-0.0116,-0.0116,0,0,-0.0417,-0.0438,-0.0442,-0.0461,-0.0458,-0.0462,-0.0459,-0.0446,-0.0444,-0.04,-0.0387,-0.0304,-0.0267,-0.0237,-0.0182,-0.0123,-0.0061,-0.0098,-0.0094,-0.0068,0.005,0.0046,0.0055,-0.0026,-0.0025,-0.0024,0.0059,0,-0.045,-0.0488,-0.0489,-0.0527,-0.0545,-0.0528,-0.053,-0.051,-0.0483,-0.0462,-0.0375,-0.0343,-0.0284,-0.0261,-0.019,-0.0097,-0.0039,-0.0087,0.0037,0.004,0.0035,0.0065,-0.0019,0.0066,0.0068,0.0069,0.007,0,-0.0479,-0.0502,-0.0548,-0.0581,-0.0589,-0.0607,-0.0609,-0.0606,-0.0557,-0.0536,-0.0477,-0.0422,-0.0328,-0.0283,-0.0116,-0.0153,-0.0061,0.0016,0.0021,0.0027,0.0053,0.0056,0.0086,0.0085,0.0084,0.0083,0.0082,0,-0.0499,-0.0545,-0.0585,-0.0598,-0.0625,-0.0645,-0.0654,-0.0628,-0.0625,-0.0584,-0.0575,-0.0464,-0.0416,-0.0277,-0.012,-0.0119,0.0056,0.0082,0.0165,0.0165,0.015,0.0145,0.0197,0.0197,0.0197,0.0197,0.0196,0,-0.0527,-0.0564,-0.0604,-0.0628,-0.0677,-0.0682,-0.0714,-0.0709,-0.0691,-0.0678,-0.0614,-0.0574,-0.0412,-0.0293,-0.0142,0.0033,0.0045,0.0161,0.0193,0.0139,0.0132,0.0156,0.015,0.02,0.0199,0.0198,0.0198,0,-0.0542,-0.0568,-0.0621,-0.0669,-0.069,-0.0723,-0.0762,-0.0773,-0.0761,-0.0745,-0.0736,-0.0652,-0.0502,-0.0334,-0.0118,-0.0008,0.0168,0.0227,0.0134,0.0159,0.0239,0.0231,0.0323,0.0324,0.0325,0.0325,0.0326,0,-0.0554,-0.0582,-0.0652,-0.0688,-0.0719,-0.0766,-0.0793,-0.0803,-0.0805,-0.0772,-0.0757,-0.0653,-0.0566,-0.0268,-0.0104,0.0155,0.0199,0.0265,0.0274,0.0233,0.0255,0.0246,0.0238,0.0326,0.0327,0.0327,0.0327,0,-0.0578,-0.0604,-0.0645,-0.0715,-0.0765,-0.0812,-0.0849,-0.085,-0.084,-0.0837,-0.0741,-0.0609,-0.0456,-0.0251,-0.0071,0.0125,0.021,0.0272,0.0272,0.0282,0.0238,0.0257,0.0248,0.0329,0.0329,0.0329,0.0328,0,-0.0594,-0.0627,-0.0679,-0.0738,-0.0801,-0.0839,-0.0855,-0.0838,-0.0831,-0.0777,-0.0742,-0.0584,-0.0501,-0.0266,-0.0082,0.0085,0.0136,0.0192,0.0197,0.0197,0.0135,0.0059,0.0124,0,0,0,0,0,-0.0605,-0.0641,-0.0699,-0.0766,-0.0826,-0.0859,-0.0883,-0.0883,-0.0864,-0.0784,-0.0755,-0.0596,-0.035,-0.026,-0.0086,-0.0082,0.0144,0.0123,0.0207,0.0341,0.0338,0.0287,0,0,0,0,0,0,-0.0615,-0.0669,-0.0696,-0.0772,-0.0819,-0.088,-0.089,-0.0878,-0.0817,-0.0776,-0.0637,-0.0569,-0.0326,-0.0446,-0.009,-0.0046,0.0029,0.0235,0.0238,0.0342,0.034,0.0338,0.0284,0,0,0,0,0]}]]